CPA380 VHHH-ZSPD

Flight info

Callsign CPA380
Flight time 1h 52m
Altitude 39000
Route LEKEN V601 DOTMI/K0893S1130 A470 LJG B221 SHZ W58 BK BK82A
Aircraft A333/H-SDE3GHIJ2J3J5M1RVWXY/LB2D1

Departure

Time 2026-05-05 07:00
Airport Hong Kong International Airport (VHHH)

Arrival

Time 2026-05-05 08:52
Airport Shanghai Pudong International Airport (ZSPD)
Time Latitude Longitude Altitude Speed Heading
2026-05-05 06:09 22.31437 113.92629 39 ft 0 kts 206°
2026-05-05 06:09 22.31435 113.92628 39 ft 0 kts 206°
2026-05-05 06:45 22.31452 113.92637 38 ft 4 kts 206°
2026-05-05 06:45 22.31476 113.92649 35 ft 4 kts 206°
2026-05-05 06:46 22.31498 113.92661 36 ft 2 kts 206°
2026-05-05 06:46 22.31517 113.92674 37 ft 4 kts 241°
2026-05-05 06:46 22.31521 113.92699 35 ft 4 kts 291°
2026-05-05 06:46 22.31510 113.92724 35 ft 4 kts 295°
2026-05-05 06:47 22.31499 113.92749 36 ft 2 kts 295°
2026-05-05 06:47 22.31490 113.92773 35 ft 4 kts 276°
2026-05-05 06:47 22.31492 113.92799 36 ft 2 kts 251°
2026-05-05 06:47 22.31500 113.92824 36 ft 4 kts 251°
2026-05-05 06:48 22.31504 113.92837 36 ft 1 kts 251°
2026-05-05 06:52 22.31504 113.92836 36 ft 0 kts 251°
2026-05-05 06:52 22.31495 113.92807 36 ft 6 kts 252°
2026-05-05 06:52 22.31505 113.92736 36 ft 13 kts 292°
2026-05-05 06:52 22.31548 113.92640 39 ft 15 kts 296°
2026-05-05 06:53 22.31594 113.92538 39 ft 15 kts 296°
2026-05-05 06:53 22.31646 113.92453 39 ft 13 kts 327°
2026-05-05 06:53 22.31726 113.92411 39 ft 12 kts 315°
2026-05-05 06:53 22.31726 113.92321 39 ft 14 kts 251°
2026-05-05 06:54 22.31693 113.92217 39 ft 16 kts 251°
2026-05-05 06:54 22.31654 113.92096 39 ft 19 kts 251°
2026-05-05 06:54 22.31608 113.91954 39 ft 21 kts 251°
2026-05-05 06:54 22.31558 113.91798 39 ft 23 kts 251°
2026-05-05 06:55 22.31503 113.91629 39 ft 25 kts 251°
2026-05-05 06:55 22.31445 113.91450 39 ft 23 kts 251°
2026-05-05 06:55 22.31399 113.91307 39 ft 20 kts 250°
2026-05-05 06:55 22.31350 113.91155 39 ft 22 kts 250°
2026-05-05 06:56 22.31297 113.90990 39 ft 24 kts 251°
2026-05-05 06:56 22.31240 113.90813 39 ft 26 kts 251°
2026-05-05 06:56 22.31183 113.90640 39 ft 21 kts 251°
2026-05-05 06:56 22.31134 113.90487 39 ft 22 kts 251°
2026-05-05 06:57 22.31092 113.90358 39 ft 19 kts 251°
2026-05-05 06:57 22.31048 113.90220 39 ft 21 kts 250°
2026-05-05 06:57 22.31005 113.90090 39 ft 18 kts 250°
2026-05-05 06:57 22.30969 113.89976 39 ft 11 kts 251°
2026-05-05 06:58 22.30943 113.89895 39 ft 10 kts 251°
2026-05-05 06:58 22.30937 113.89824 39 ft 10 kts 299°
2026-05-05 06:58 22.31000 113.89787 39 ft 11 kts 340°
2026-05-05 06:58 22.31078 113.89780 39 ft 12 kts 33°
2026-05-05 06:59 22.31115 113.89863 39 ft 16 kts 71°
2026-05-05 06:59 22.31208 113.90152 39 ft 74 kts 70°
2026-05-05 06:59 22.31453 113.90911 39 ft 139 kts 71°
2026-05-05 06:59 22.31831 113.92069 297 ft 177 kts 70°
2026-05-05 07:00 22.32243 113.93335 1126 ft 186 kts 71°
2026-05-05 07:00 22.32664 113.94648 2207 ft 179 kts 72°
2026-05-05 07:00 22.33064 113.95897 3157 ft 177 kts 72°
2026-05-05 07:00 22.33606 113.97200 3576 ft 205 kts 62°
2026-05-05 07:01 22.34418 113.98575 4132 ft 226 kts 57°
2026-05-05 07:01 22.35329 114.00004 4972 ft 235 kts 56°
2026-05-05 07:01 22.35948 114.00971 5560 ft 239 kts 56°
2026-05-05 07:01 22.36904 114.02472 6467 ft 246 kts 56°
2026-05-05 07:02 22.37884 114.04019 7349 ft 251 kts 56°
2026-05-05 07:02 22.38874 114.05586 8303 ft 254 kts 55°
2026-05-05 07:02 22.39962 114.07837 9478 ft 260 kts 79°
2026-05-05 07:02 22.39899 114.09800 10099 ft 272 kts 108°
2026-05-05 07:03 22.39460 114.11143 10325 ft 288 kts 115°
2026-05-05 07:03 22.38606 114.13201 10658 ft 313 kts 117°
2026-05-05 07:03 22.37659 114.15416 11010 ft 336 kts 117°
2026-05-05 07:03 22.36660 114.17798 11338 ft 359 kts 117°
2026-05-05 07:04 22.35618 114.20332 11683 ft 377 kts 116°
2026-05-05 07:04 22.34560 114.22928 12236 ft 387 kts 116°
2026-05-05 07:04 22.33293 114.25506 12945 ft 390 kts 128°
2026-05-05 07:04 22.31417 114.27607 13704 ft 389 kts 148°
2026-05-05 07:05 22.29071 114.29041 14336 ft 388 kts 158°
2026-05-05 07:05 22.26607 114.30258 14946 ft 392 kts 160°
2026-05-05 07:05 22.24129 114.31551 15569 ft 400 kts 154°
2026-05-05 07:05 22.21777 114.33215 16175 ft 408 kts 149°
2026-05-05 07:06 22.19462 114.35021 16759 ft 413 kts 148°
2026-05-05 07:06 22.17135 114.36867 17351 ft 417 kts 148°
2026-05-05 07:06 22.14778 114.38736 17915 ft 422 kts 148°
2026-05-05 07:06 22.12397 114.40620 18477 ft 425 kts 148°
2026-05-05 07:07 22.10006 114.42510 18982 ft 428 kts 148°
2026-05-05 07:07 22.07590 114.44418 19426 ft 433 kts 148°
2026-05-05 07:07 22.05148 114.46343 19883 ft 437 kts 148°
2026-05-05 07:07 22.02676 114.48291 20311 ft 441 kts 148°
2026-05-05 07:08 22.00244 114.50276 20734 ft 448 kts 144°
2026-05-05 07:08 21.98031 114.52681 21173 ft 458 kts 132°
2026-05-05 07:08 21.96325 114.55617 21662 ft 468 kts 118°
2026-05-05 07:08 21.95746 114.57135 21859 ft 472 kts 111°
2026-05-05 07:09 21.95171 114.59226 22100 ft 476 kts 106°
2026-05-05 07:09 21.94466 114.62419 22467 ft 480 kts 104°
2026-05-05 07:09 21.93737 114.65946 22890 ft 484 kts 104°
2026-05-05 07:09 21.93002 114.69496 23316 ft 487 kts 104°
2026-05-05 07:10 21.92709 114.70893 23476 ft 489 kts 104°
2026-05-05 07:10 21.92478 114.71989 23591 ft 490 kts 104°
2026-05-05 07:10 21.91717 114.75578 23945 ft 493 kts 104°
2026-05-05 07:10 21.90957 114.79147 24291 ft 496 kts 104°
2026-05-05 07:11 21.90180 114.82778 24655 ft 499 kts 104°
2026-05-05 07:11 21.89396 114.86431 25020 ft 502 kts 104°
2026-05-05 07:11 21.88694 114.90121 25382 ft 506 kts 99°
2026-05-05 07:11 21.88435 114.93909 25753 ft 509 kts 91°
2026-05-05 07:12 21.88430 114.97723 26117 ft 512 kts 89°
2026-05-05 07:12 21.88539 115.01574 26482 ft 515 kts 87°
2026-05-05 07:12 21.88698 115.05444 26849 ft 518 kts 87°
2026-05-05 07:12 21.88867 115.09324 27207 ft 520 kts 87°
2026-05-05 07:13 21.89028 115.13238 27560 ft 523 kts 87°
2026-05-05 07:13 21.89175 115.17166 27911 ft 526 kts 88°
2026-05-05 07:13 21.89308 115.21055 28262 ft 529 kts 88°
2026-05-05 07:13 21.89435 115.25036 28613 ft 532 kts 88°
2026-05-05 07:14 21.89556 115.29027 28962 ft 535 kts 88°
2026-05-05 07:14 21.89675 115.33037 29305 ft 537 kts 88°
2026-05-05 07:14 21.89793 115.37065 29651 ft 540 kts 88°
2026-05-05 07:14 21.89911 115.41118 29977 ft 542 kts 88°
2026-05-05 07:15 21.90029 115.45184 30248 ft 545 kts 88°
2026-05-05 07:15 21.90148 115.49268 30521 ft 547 kts 88°
2026-05-05 07:15 21.90265 115.53365 30829 ft 548 kts 88°
2026-05-05 07:15 21.90382 115.57464 31252 ft 546 kts 88°
2026-05-05 07:16 21.90595 115.61538 31654 ft 545 kts 82°
2026-05-05 07:16 21.91211 115.65568 32049 ft 543 kts 78°
2026-05-05 07:16 21.91938 115.69558 32498 ft 541 kts 77°
2026-05-05 07:16 21.92718 115.73523 32856 ft 542 kts 76°
2026-05-05 07:17 21.93530 115.77501 33143 ft 544 kts 76°
2026-05-05 07:17 21.94351 115.81478 33523 ft 544 kts 76°
2026-05-05 07:17 21.95170 115.85448 33948 ft 542 kts 76°
2026-05-05 07:17 21.95981 115.89409 34321 ft 541 kts 76°
2026-05-05 07:18 21.96787 115.93371 34709 ft 540 kts 76°
2026-05-05 07:18 21.97575 115.97267 35117 ft 539 kts 76°
2026-05-05 07:18 21.98392 116.01195 35527 ft 536 kts 73°
2026-05-05 07:18 21.99580 116.04979 35902 ft 532 kts 64°
2026-05-05 07:19 22.01279 116.08488 36234 ft 526 kts 53°
2026-05-05 07:19 22.03485 116.11596 36561 ft 519 kts 42°
2026-05-05 07:19 22.06131 116.14197 36877 ft 510 kts 31°
2026-05-05 07:19 22.09107 116.16214 37213 ft 500 kts 20°
2026-05-05 07:20 22.12299 116.17616 37538 ft 490 kts 10°
2026-05-05 07:20 22.15602 116.18399 37888 ft 480 kts
2026-05-05 07:20 22.18910 116.18609 38212 ft 473 kts 354°
2026-05-05 07:20 22.22188 116.18589 38522 ft 470 kts 352°
2026-05-05 07:21 22.25452 116.18484 38809 ft 468 kts 351°
2026-05-05 07:21 22.28709 116.18345 38970 ft 469 kts 351°
2026-05-05 07:21 22.31976 116.18200 38997 ft 469 kts 351°
2026-05-05 07:22 22.38496 116.17937 38996 ft 469 kts 351°
2026-05-05 07:22 22.45032 116.17710 39011 ft 469 kts 351°
2026-05-05 07:23 22.51517 116.17499 39004 ft 469 kts 351°
2026-05-05 07:23 22.58040 116.17289 38996 ft 469 kts 351°
2026-05-05 07:24 22.64574 116.17084 39001 ft 471 kts 353°
2026-05-05 07:24 22.71155 116.18019 39002 ft 487 kts 10°
2026-05-05 07:25 22.77317 116.21342 39010 ft 505 kts 28°
2026-05-05 07:25 22.83011 116.25874 38997 ft 509 kts 32°
2026-05-05 07:26 22.88612 116.30631 39007 ft 511 kts 32°
2026-05-05 07:26 22.94220 116.35380 39009 ft 511 kts 32°
2026-05-05 07:27 22.99866 116.40081 39004 ft 511 kts 31°
2026-05-05 07:27 23.05532 116.44757 39012 ft 511 kts 31°
2026-05-05 07:28 23.11162 116.49403 39015 ft 511 kts 31°
2026-05-05 07:28 23.16819 116.54082 39013 ft 511 kts 31°
2026-05-05 07:29 23.22473 116.58768 39012 ft 511 kts 31°
2026-05-05 07:29 23.28134 116.63466 39020 ft 513 kts 31°
2026-05-05 07:30 23.33810 116.68179 39018 ft 514 kts 31°
2026-05-05 07:30 23.42297 116.75248 39017 ft 514 kts 33°
2026-05-05 07:31 23.47538 116.80653 39018 ft 520 kts 40°
2026-05-05 07:31 23.52597 116.86331 39021 ft 523 kts 41°
2026-05-05 07:32 23.57629 116.92079 39028 ft 524 kts 41°
2026-05-05 07:32 23.62606 116.97764 39017 ft 522 kts 41°
2026-05-05 07:33 23.67669 117.03531 39022 ft 524 kts 41°
2026-05-05 07:33 23.72683 117.09246 39040 ft 524 kts 41°
2026-05-05 07:34 23.77786 117.14963 39030 ft 526 kts 38°
2026-05-05 07:34 23.83187 117.20322 39021 ft 524 kts 36°
2026-05-05 07:35 23.88679 117.25573 39030 ft 525 kts 36°
2026-05-05 07:35 23.94159 117.30861 39029 ft 525 kts 36°
2026-05-05 07:36 23.99620 117.36186 39030 ft 526 kts 36°
2026-05-05 07:36 24.05081 117.41537 39034 ft 528 kts 36°
2026-05-05 07:37 24.10518 117.46869 39021 ft 528 kts 36°
2026-05-05 07:37 24.15785 117.52512 39028 ft 531 kts 41°
2026-05-05 07:38 24.20811 117.58444 39035 ft 533 kts 43°
2026-05-05 07:38 24.25783 117.64431 39025 ft 534 kts 43°
2026-05-05 07:39 24.30797 117.70480 39026 ft 535 kts 43°
2026-05-05 07:39 24.35798 117.76506 39025 ft 535 kts 43°
2026-05-05 07:40 24.40809 117.82544 39022 ft 535 kts 43°
2026-05-05 07:40 24.45789 117.88548 39022 ft 536 kts 43°
2026-05-05 07:41 24.50820 117.94622 39029 ft 538 kts 43°
2026-05-05 07:41 24.55852 118.00705 39028 ft 538 kts 43°
2026-05-05 07:42 24.60980 118.06673 39016 ft 536 kts 41°
2026-05-05 07:42 24.66197 118.12554 39042 ft 537 kts 41°
2026-05-05 07:43 24.71424 118.18452 39027 ft 539 kts 41°
2026-05-05 07:43 24.76612 118.24347 39027 ft 540 kts 41°
2026-05-05 07:44 24.81828 118.30302 39029 ft 540 kts 41°
2026-05-05 07:44 24.87036 118.36258 39059 ft 540 kts 41°
2026-05-05 07:45 24.92249 118.42221 39033 ft 541 kts 41°
2026-05-05 07:45 24.97484 118.48215 39026 ft 542 kts 41°
2026-05-05 07:46 25.02683 118.54179 39031 ft 542 kts 41°
2026-05-05 07:46 25.07908 118.60184 39031 ft 542 kts 41°
2026-05-05 07:47 25.13085 118.66268 39030 ft 544 kts 43°
2026-05-05 07:47 25.18191 118.72453 39036 ft 545 kts 43°
2026-05-05 07:48 25.23300 118.78661 39034 ft 546 kts 43°
2026-05-05 07:48 25.27553 118.83813 39042 ft 546 kts 43°
2026-05-05 07:49 25.32680 118.90023 39036 ft 546 kts 43°
2026-05-05 07:49 25.37846 118.96171 39034 ft 545 kts 43°
2026-05-05 07:50 25.43077 119.02267 39055 ft 546 kts 42°
2026-05-05 07:50 25.48318 119.08361 39047 ft 546 kts 42°
2026-05-05 07:51 25.53543 119.14460 39067 ft 546 kts 42°
2026-05-05 07:51 25.58740 119.20547 39058 ft 548 kts 42°
2026-05-05 07:52 25.63974 119.26691 39047 ft 548 kts 43°
2026-05-05 07:52 25.69209 119.32847 39056 ft 549 kts 43°
2026-05-05 07:53 25.75016 119.38147 39094 ft 533 kts 22°
2026-05-05 07:53 25.81783 119.41222 39071 ft 522 kts 11°
2026-05-05 07:54 25.88732 119.43623 39070 ft 521 kts
2026-05-05 07:54 25.95682 119.45911 39072 ft 521 kts
2026-05-05 07:55 26.02630 119.48231 39075 ft 522 kts
2026-05-05 07:55 26.09549 119.50576 39070 ft 523 kts
2026-05-05 07:56 26.16512 119.52954 39070 ft 523 kts
2026-05-05 07:56 26.23342 119.55952 39070 ft 537 kts 22°
2026-05-05 07:57 26.29801 119.60180 39073 ft 541 kts 25°
2026-05-05 07:57 26.36172 119.64660 39080 ft 542 kts 26°
2026-05-05 07:58 26.42547 119.69183 39069 ft 542 kts 26°
2026-05-05 07:58 26.48872 119.73646 39087 ft 541 kts 26°
2026-05-05 07:59 26.55250 119.78123 39066 ft 542 kts 25°
2026-05-05 07:59 26.61639 119.82609 39069 ft 542 kts 25°
2026-05-05 08:00 26.68039 119.87110 39072 ft 544 kts 26°
2026-05-05 08:00 26.74455 119.91632 39071 ft 544 kts 25°
2026-05-05 08:01 26.80853 119.96145 39066 ft 544 kts 25°
2026-05-05 08:01 26.87252 120.00664 39061 ft 543 kts 25°
2026-05-05 08:02 26.93605 120.05162 39088 ft 544 kts 25°
2026-05-05 08:02 27.00046 120.09732 39063 ft 545 kts 25°
2026-05-05 08:03 27.06413 120.14251 39069 ft 545 kts 25°
2026-05-05 08:03 27.12837 120.18821 39069 ft 546 kts 26°
2026-05-05 08:04 27.19221 120.23347 39066 ft 542 kts 25°
2026-05-05 08:04 27.25647 120.27872 39066 ft 546 kts 25°
2026-05-05 08:05 27.32092 120.32420 39067 ft 547 kts 25°
2026-05-05 08:05 27.38508 120.36965 39088 ft 547 kts 25°
2026-05-05 08:06 27.44947 120.41542 39058 ft 548 kts 25°
2026-05-05 08:06 27.51403 120.46140 39064 ft 549 kts 25°
2026-05-05 08:07 27.57859 120.50742 39067 ft 549 kts 25°
2026-05-05 08:07 27.64317 120.55355 39068 ft 549 kts 26°
2026-05-05 08:08 27.70779 120.59967 39069 ft 547 kts 23°
2026-05-05 08:08 27.74157 120.61824 39067 ft 535 kts 12°
2026-05-05 08:08 27.77673 120.62989 39067 ft 519 kts
2026-05-05 08:09 27.84721 120.64023 39083 ft 511 kts 355°
2026-05-05 08:09 27.91798 120.64665 39061 ft 509 kts 354°
2026-05-05 08:10 27.98867 120.65254 39067 ft 510 kts 354°
2026-05-05 08:10 28.05952 120.65892 39069 ft 511 kts 355°
2026-05-05 08:11 28.13050 120.66587 39080 ft 511 kts 355°
2026-05-05 08:11 28.20091 120.67285 39072 ft 511 kts 355°
2026-05-05 08:12 28.27182 120.67981 39062 ft 511 kts 355°
2026-05-05 08:12 28.34271 120.68684 39085 ft 511 kts 355°
2026-05-05 08:13 28.41370 120.69378 39064 ft 512 kts 355°
2026-05-05 08:13 28.48478 120.70087 39067 ft 513 kts 355°
2026-05-05 08:14 28.55601 120.70808 39067 ft 513 kts 355°
2026-05-05 08:14 28.62712 120.71525 39049 ft 513 kts 355°
2026-05-05 08:15 28.69844 120.72238 39058 ft 515 kts 355°
2026-05-05 08:15 28.76942 120.72999 39056 ft 515 kts 356°
2026-05-05 08:16 28.84050 120.73792 39057 ft 514 kts 356°
2026-05-05 08:16 28.91176 120.74556 39050 ft 514 kts 356°
2026-05-05 08:17 28.98304 120.75287 39041 ft 514 kts 356°
2026-05-05 08:17 29.05426 120.76015 39034 ft 514 kts 356°
2026-05-05 08:18 29.12541 120.76748 39032 ft 512 kts 356°
2026-05-05 08:18 29.19601 120.77476 39036 ft 512 kts 356°
2026-05-05 08:19 29.26701 120.78208 38977 ft 513 kts 356°
2026-05-05 08:19 29.30257 120.78576 38767 ft 512 kts 356°
2026-05-05 08:19 29.33802 120.78943 38570 ft 512 kts 356°
2026-05-05 08:20 29.37350 120.79311 38292 ft 512 kts 356°
2026-05-05 08:20 29.40906 120.79680 38024 ft 512 kts 356°
2026-05-05 08:20 29.44462 120.80048 37758 ft 513 kts 356°
2026-05-05 08:20 29.48014 120.80417 37495 ft 513 kts 356°
2026-05-05 08:21 29.51573 120.80786 37243 ft 513 kts 357°
2026-05-05 08:21 29.55130 120.81281 37016 ft 522 kts
2026-05-05 08:21 29.58593 120.82688 36766 ft 535 kts 21°
2026-05-05 08:21 29.61719 120.85064 36516 ft 545 kts 37°
2026-05-05 08:22 29.64300 120.88275 36285 ft 551 kts 52°
2026-05-05 08:22 29.66386 120.91978 36042 ft 553 kts 57°
2026-05-05 08:22 29.68394 120.95759 35445 ft 553 kts 57°
2026-05-05 08:22 29.70408 120.99481 34640 ft 557 kts 57°
2026-05-05 08:23 29.72524 121.03308 33545 ft 565 kts 56°
2026-05-05 08:23 29.74636 121.07069 32257 ft 564 kts 56°
2026-05-05 08:23 29.76768 121.10835 31459 ft 559 kts 56°
2026-05-05 08:23 29.78887 121.14566 30810 ft 554 kts 56°
2026-05-05 08:24 29.80995 121.18271 30068 ft 550 kts 56°
2026-05-05 08:24 29.83087 121.21948 29207 ft 547 kts 55°
2026-05-05 08:24 29.85170 121.25597 28451 ft 540 kts 56°
2026-05-05 08:24 29.87229 121.29215 27513 ft 540 kts 56°
2026-05-05 08:25 29.89492 121.32630 26872 ft 531 kts 44°
2026-05-05 08:25 29.92303 121.35308 26185 ft 519 kts 29°
2026-05-05 08:25 29.95416 121.37327 25532 ft 509 kts 24°
2026-05-05 08:25 29.98543 121.39199 24858 ft 504 kts 24°
2026-05-05 08:26 30.01631 121.41057 24270 ft 496 kts 24°
2026-05-05 08:26 30.04628 121.42888 23608 ft 491 kts 25°
2026-05-05 08:26 30.07618 121.44736 22987 ft 483 kts 25°
2026-05-05 08:26 30.10554 121.46561 22250 ft 477 kts 25°
2026-05-05 08:27 30.13444 121.48367 21806 ft 465 kts 26°
2026-05-05 08:27 30.16255 121.50129 21192 ft 456 kts 26°
2026-05-05 08:27 30.19040 121.51876 20413 ft 453 kts 26°
2026-05-05 08:27 30.21799 121.53610 19636 ft 450 kts 26°
2026-05-05 08:28 30.24523 121.55324 19017 ft 442 kts 26°
2026-05-05 08:28 30.27201 121.57035 18362 ft 437 kts 26°
2026-05-05 08:28 30.29836 121.58737 17624 ft 431 kts 27°
2026-05-05 08:28 30.32433 121.60419 16889 ft 425 kts 27°
2026-05-05 08:29 30.34995 121.62079 16145 ft 420 kts 27°
2026-05-05 08:29 30.37510 121.63752 15504 ft 413 kts 28°
2026-05-05 08:29 30.39959 121.65457 14740 ft 409 kts 29°
2026-05-05 08:30 30.44724 121.68811 13429 ft 396 kts 29°
2026-05-05 08:30 30.47052 121.70451 12767 ft 386 kts 28°
2026-05-05 08:30 30.49290 121.72027 12104 ft 364 kts 30°
2026-05-05 08:30 30.51387 121.73506 11479 ft 343 kts 30°
2026-05-05 08:31 30.53376 121.74909 10981 ft 324 kts 29°
2026-05-05 08:31 30.55250 121.76230 10523 ft 307 kts 30°
2026-05-05 08:31 30.57099 121.77382 9913 ft 299 kts 19°
2026-05-05 08:31 30.59067 121.78056 9662 ft 293 kts 13°
2026-05-05 08:32 30.61048 121.78605 9578 ft 293 kts 12°
2026-05-05 08:32 30.63033 121.79136 9478 ft 293 kts 11°
2026-05-05 08:32 30.64995 121.79662 9363 ft 292 kts 12°
2026-05-05 08:32 30.66975 121.80197 9251 ft 292 kts 12°
2026-05-05 08:33 30.68949 121.80732 9143 ft 291 kts 12°
2026-05-05 08:33 30.70921 121.81266 9034 ft 290 kts 12°
2026-05-05 08:33 30.72889 121.81801 8927 ft 290 kts 12°
2026-05-05 08:33 30.74851 121.82335 8808 ft 289 kts 12°
2026-05-05 08:34 30.76814 121.82869 8700 ft 288 kts 12°
2026-05-05 08:34 30.78765 121.83401 8591 ft 287 kts 12°
2026-05-05 08:34 30.80710 121.83931 8457 ft 288 kts 12°
2026-05-05 08:34 30.82657 121.84461 8378 ft 287 kts 13°
2026-05-05 08:35 30.83945 121.84813 8299 ft 287 kts 12°
2026-05-05 08:35 30.85887 121.85343 8188 ft 287 kts 12°
2026-05-05 08:35 30.87826 121.85872 8089 ft 286 kts 12°
2026-05-05 08:35 30.89767 121.86402 7986 ft 285 kts 12°
2026-05-05 08:36 30.92322 121.87117 7841 ft 285 kts 15°
2026-05-05 08:36 30.93575 121.87670 7764 ft 285 kts 25°
2026-05-05 08:36 30.95875 121.89136 7631 ft 285 kts 30°
2026-05-05 08:36 30.97030 121.89931 7546 ft 285 kts 30°
2026-05-05 08:37 30.98734 121.91111 7421 ft 285 kts 30°
2026-05-05 08:37 31.00444 121.92292 7327 ft 285 kts 30°
2026-05-05 08:37 31.02146 121.93464 7226 ft 284 kts 30°
2026-05-05 08:37 31.03846 121.94632 7113 ft 283 kts 30°
2026-05-05 08:38 31.05541 121.95796 7001 ft 282 kts 30°
2026-05-05 08:38 31.07260 121.96836 6901 ft 282 kts 20°
2026-05-05 08:38 31.09167 121.97317 6780 ft 281 kts
2026-05-05 08:38 31.11092 121.97011 6567 ft 280 kts 345°
2026-05-05 08:39 31.12957 121.96364 6298 ft 279 kts 341°
2026-05-05 08:39 31.14800 121.95648 6036 ft 279 kts 341°
2026-05-05 08:39 31.16636 121.94920 5793 ft 278 kts 340°
2026-05-05 08:39 31.18467 121.94191 5551 ft 278 kts 340°
2026-05-05 08:40 31.20298 121.93463 5297 ft 276 kts 340°
2026-05-05 08:40 31.22093 121.92749 5044 ft 269 kts 340°
2026-05-05 08:40 31.23845 121.92052 4851 ft 261 kts 340°
2026-05-05 08:40 31.25536 121.91380 4725 ft 252 kts 340°
2026-05-05 08:41 31.27170 121.90730 4604 ft 245 kts 340°
2026-05-05 08:41 31.28782 121.90088 4508 ft 244 kts 340°
2026-05-05 08:41 31.30356 121.89461 4365 ft 232 kts 340°
2026-05-05 08:41 31.31842 121.88871 4240 ft 226 kts 339°
2026-05-05 08:42 31.33326 121.88278 4123 ft 225 kts 340°
2026-05-05 08:42 31.34793 121.87692 3997 ft 217 kts 339°
2026-05-05 08:42 31.36185 121.87142 3865 ft 206 kts 339°
2026-05-05 08:42 31.37433 121.86400 3598 ft 200 kts 316°
2026-05-05 08:43 31.38172 121.85093 3274 ft 190 kts 279°
2026-05-05 08:43 31.38103 121.83623 2995 ft 179 kts 245°
2026-05-05 08:43 31.37515 121.82360 2708 ft 174 kts 233°
2026-05-05 08:43 31.36841 121.81211 2303 ft 171 kts 231°
2026-05-05 08:44 31.36150 121.80063 2016 ft 174 kts 231°
2026-05-05 08:44 31.35458 121.78895 1961 ft 172 kts 231°
2026-05-05 08:44 31.34802 121.77767 1957 ft 164 kts 231°
2026-05-05 08:44 31.34179 121.76684 1958 ft 157 kts 229°
2026-05-05 08:45 31.33435 121.75824 1945 ft 147 kts 201°
2026-05-05 08:45 31.32440 121.75679 1965 ft 145 kts 176°
2026-05-05 08:45 31.31460 121.75852 1961 ft 143 kts 169°
2026-05-05 08:45 31.30542 121.76133 1940 ft 128 kts 166°
2026-05-05 08:46 31.29739 121.76424 1937 ft 116 kts 165°
2026-05-05 08:46 31.28973 121.76718 1956 ft 116 kts 164°
2026-05-05 08:46 31.28193 121.77012 1960 ft 119 kts 165°
2026-05-05 08:46 31.27397 121.77309 1966 ft 120 kts 166°
2026-05-05 08:47 31.26600 121.77607 1965 ft 120 kts 165°
2026-05-05 08:47 31.25804 121.77906 1965 ft 120 kts 164°
2026-05-05 08:47 31.25000 121.78211 1857 ft 123 kts 163°
2026-05-05 08:47 31.24181 121.78523 1698 ft 125 kts 164°
2026-05-05 08:48 31.23338 121.78842 1540 ft 129 kts 163°
2026-05-05 08:48 31.22482 121.79168 1374 ft 129 kts 164°
2026-05-05 08:48 31.22136 121.79301 1300 ft 130 kts 164°
2026-05-05 08:50 31.21444 121.79569 1157 ft 129 kts 165°
2026-05-05 08:50 31.20592 121.79898 970 ft 128 kts 165°
2026-05-05 08:50 31.19740 121.80216 786 ft 128 kts 166°
2026-05-05 08:50 31.18883 121.80529 648 ft 129 kts 162°
2026-05-05 08:51 31.18038 121.80852 462 ft 127 kts 162°
2026-05-05 08:51 31.17195 121.81168 318 ft 128 kts 161°
2026-05-05 08:51 31.16358 121.81486 155 ft 126 kts 161°
2026-05-05 08:51 31.15535 121.81800 36 ft 120 kts 161°
2026-05-05 08:52 31.14890 121.82044 28 ft 61 kts 162°
2026-05-05 08:52 31.14621 121.82146 27 ft 34 kts 162°
2026-05-05 08:52 31.14427 121.82185 27 ft 26 kts 183°
2026-05-05 08:52 31.14298 121.82163 28 ft 13 kts 190°
2026-05-05 08:53 31.14243 121.82128 26 ft 6 kts 252°
2026-05-05 08:53 31.14265 121.82079 26 ft 8 kts 321°
2026-05-05 08:53 31.14319 121.82053 26 ft 9 kts 340°
2026-05-05 08:53 31.14404 121.82019 26 ft 17 kts 342°
2026-05-05 08:54 31.14537 121.81969 28 ft 22 kts 342°
2026-05-05 08:54 31.14692 121.81911 28 ft 25 kts 342°
2026-05-05 08:54 31.14863 121.81846 28 ft 27 kts 342°
2026-05-05 08:54 31.14970 121.81804 28 ft 9 kts 331°
2026-05-05 08:55 31.14980 121.81733 28 ft 10 kts 257°
2026-05-05 08:55 31.14954 121.81644 30 ft 13 kts 251°
2026-05-05 08:55 31.14922 121.81533 30 ft 16 kts 251°
2026-05-05 08:55 31.14887 121.81403 31 ft 18 kts 252°
2026-05-05 08:56 31.14847 121.81258 27 ft 20 kts 252°
2026-05-05 08:56 31.14810 121.81125 27 ft 13 kts 252°
2026-05-05 08:56 31.14818 121.81046 27 ft 11 kts 321°
2026-05-05 08:56 31.14899 121.81010 27 ft 15 kts 342°
2026-05-05 08:57 31.15017 121.80965 27 ft 20 kts 342°
2026-05-05 08:57 31.15154 121.80913 27 ft 21 kts 342°
2026-05-05 08:57 31.15295 121.80860 26 ft 18 kts 342°
2026-05-05 08:57 31.15366 121.80830 26 ft 7 kts 322°
2026-05-05 08:58 31.15366 121.80783 27 ft 6 kts 245°
2026-05-05 08:58 31.15354 121.80746 27 ft 4 kts 251°
2026-05-05 08:58 31.15350 121.80731 27 ft 0 kts 251°
2026-05-05 09:01 31.15350 121.80732 27 ft 0 kts 252°